{"data":{"norad_id":63247,"epoch":"2026-09-22T22:13:54.919776Z","epoch_age_seconds":98969,"freshness":"FRESH","line1":"1 63247U 25052AP  26265.92633009  .00002623  00000+0  22744-3 0  9993","line2":"2 63247  97.6767 156.4980 0001373 184.1508 175.9703 14.97937064 83294","mean_motion":14.97937064,"eccentricity":0.0001373,"inclination_deg":97.6767,"raan_deg":156.498,"arg_perigee_deg":184.1508,"mean_anomaly_deg":175.9703,"bstar":0.00022744,"rev_number":8329,"period_min":96.132209730809,"perigee_km":572.31685037037,"apogee_km":574.22570708371,"semimajor_km":6951.408278727,"source":"CELESTRAK","updated_at":"2026-09-23T09:00:21.936238Z"}}